Weather past 2 weeks in Jamestown, Saint Helena

Now
61 °F

Fog.


Feels Like: 61 °F
Forecast: 68 / 70 °F
Wind: 25 mph from Southeast

Location: Saint Helena Island

Current Time: Jul 26, 2014 at 12:07:36 PM

Latest Report: Jul 26, 2014 at 11:00 AM


Visibility: 1 mi

Pressure: 30.25 "Hg

Humidity: 80%

Dew point: 54 °F

Location of JamestownLocation

Historic Weather in Jamestown — Graph

°F

Jamestown temperature yesterday

Maximum temperature yesterday: 61 °F (at 12:00 PM)
Minimum temperature yesterday: 58 °F (at 5:00 AM)
Average temperature yesterday: 59 °F

Past Weeks' High & Low Weather Summary

 TemperatureHumidityPressure
High65 °F (Jul 12, 2:00 PM)100% (Jul 14, 11:00 PM)30.29 "Hg (Jul 14, 11:00 PM)
Low56 °F (Jul 16, 3:00 AM)58% (Jul 11, 11:00 AM)30.11 "Hg (Jul 14, 5:00 AM)
Average60 °F87%30.19 "Hg
* Reported Jul 11 11:00 AM — Jul 26 11:00 AM, Jamestown, Weather by CustomWeather, © 2014

Note: Actual official high and low records may vary slightly from our data, if they occured in-between our weather recording intervals... More about our weather records

Advertising

Jamestown weather history for previous 24 hours

 ConditionsComfort  
Time TempWeatherWind HumidityBarometerVisibility
11:00 AM
Jul 26
61 °FFog.25 mph80%30.25 "Hg1 mi
10:00 AM60 °FCool.28 mph81%30.25 "HgN/A
9:00 AM58 °FCool.25 mph87%30.25 "HgN/A
8:00 AM58 °FCool.23 mph90%30.24 "HgN/A
7:00 AM58 °FCool.22 mph87%30.22 "HgN/A
5:00 AM57 °FCool.33 mph88%30.20 "HgN/A
4:00 AM59 °FCool.29 mph78%30.19 "HgN/A
3:00 AM59 °FCool.29 mph86%30.19 "HgN/A
2:00 AM58 °FCool.33 mph92%30.22 "HgN/A
1:00 AM60 °FCool.31 mph75%30.23 "HgN/A
11:00 PM
Jul 25
60 °FCool.32 mph70%30.26 "HgN/A
10:00 PM60 °FCool.30 mph76%30.25 "HgN/A
9:00 PM59 °FCool.30 mph74%30.24 "HgN/A
8:00 PM59 °FCool.32 mph85%30.23 "HgN/A
7:00 PM59 °FCool.33 mph88%30.22 "HgN/A
6:00 PM58 °FCool.28 mph94%30.22 "HgN/A
5:00 PM60 °FCool.29 mph81%30.20 "HgN/A
4:00 PM59 °FCool.24 mph86%30.20 "HgN/A
3:00 PM61 °FFog.28 mph78%30.20 "Hg9 mi
2:00 PM60 °FSprinkles. Low clouds.23 mph85%30.21 "Hg1 mi
1:00 PM61 °FOvercast.26 mph78%30.24 "Hg6 mi
12:00 PM61 °FOvercast.29 mph70%30.25 "Hg6 mi
Weather by CustomWeather, © 2014

See weather overviewHow to use our weather pages